This demonstration page uses our WeatherBlox Daily Observations layout. Learn more.

39.29038, -76.61219

Hourly Observations for August 1, 2019

Temp ( °F °C ) Dew Point ( °F °C ) Humidity (%) Winds ( mph kmh ) Pressure ( in mb ) Visibility ( mi km ) Precip ( " mm )
12:54 am 00:54 undefined 77 25 68 20 74 74 undefined N/A 30.03 1017 N/A 0 0
1:54 am 01:54 undefined 77 25 67 19.4 71 71 undefined N/A 30.03 1017 N/A 0 0
2:54 am 02:54 undefined 76 24.4 67 19.4 74 74 undefined N/A 30.03 1017 N/A 0 0
3:54 am 03:54 undefined 76 24.4 67 19.4 74 74 undefined N/A 30.03 1017 N/A 0 0
4:54 am 04:54 undefined 75 23.9 68 20 79 79 undefined N/A 30.03 1017 N/A 0 0
5:54 am 05:54 undefined 73 22.8 67 19.4 81 81 undefined N/A 30.03 1017 N/A 0 0
6:54 am 06:54 undefined 74 23.3 68 20 82 82 undefined N/A 30.03 1017 N/A 0 0
7:54 am 07:54 undefined 77 25 68 20 74 74 undefined N/A 30.06 1018 N/A 0 0
8:54 am 08:54 undefined 81 27.2 69 20.6 67 67 undefined N/A 30.06 1018 N/A 0 0
9:54 am 09:54 undefined 81 27.2 69 20.6 67 67 undefined N/A 30.06 1018 N/A 0 0
10:54 am 10:54 undefined 86 30 69 20.6 57 57 undefined N/A 30.06 1018 N/A 0 0
11:54 am 11:54 undefined 87 30.6 70 21.1 57 57 undefined N/A 30.09 1019 N/A 0 0
12:54 pm 12:54 undefined 91 32.8 71 21.7 52 52 undefined N/A 30.06 1018 N/A 0 0
1:54 pm 13:54 undefined 88 31.1 68 20 52 52 undefined N/A 30.06 1018 N/A 0 0
2:54 pm 14:54 undefined 74 23.3 68 20 82 82 undefined N/A 30 1016 N/A 0.23 5.842
3:54 pm 15:54 undefined 84 28.9 68 20 59 59 undefined N/A 30.12 1020 N/A 0 0
4:29 pm 16:29 undefined 87 30.6 68 20 53 53 undefined N/A 30.09 1019 N/A 0 0
4:54 pm 16:54 undefined 89 31.7 67 19.4 48 48 undefined N/A 30.06 1018 N/A 0 0
5:54 pm 17:54 undefined 87 30.6 66 18.9 50 50 undefined N/A 30.03 1017 N/A 0 0
6:54 pm 18:54 undefined 82 27.8 68 20 63 63 undefined N/A 30 1016 N/A 0 0
7:54 pm 19:54 undefined 81 27.2 69 20.6 67 67 undefined N/A 30.03 1017 N/A 0 0
8:54 pm 20:54 undefined 80 26.7 68 20 67 67 undefined N/A 30.06 1018 N/A 0 0
9:54 pm 21:54 undefined 79 26.1 68 20 69 69 undefined N/A 30.06 1018 N/A 0 0
10:54 pm 22:54 undefined 79 26.1 66 18.9 65 65 undefined N/A 30.06 1018 N/A 0 0
11:54 pm 23:54 undefined 78 25.6 67 19.4 69 69 undefined N/A 30.09 1019 N/A 0 0

Powered by AerisWeather